Location: Eymir
(36.7333°N, 29.7833°E)
Time: 03:44:03
(UTC+00:00)

Timation 1 Rocket - Visible Passes

Search period start: 21 April 2026 00:00
Search period end: 01 May 2026 00:00
Orbit: 895 x 909 km, 70.0° (Epoch: 20 April)

Date Brightness Start Highest point End Pass type
(mag) Time Alt. Az. Time Alt. Az. Time Alt. Az.
21 Apr 6.4 21:57:09 22° NNE 21:57:09 22° NNE 21:59:07 10° NNE visible
21 Apr 6.5 23:40:12 16° NW 23:40:12 16° NW 23:42:57 10° NNW visible
22 Apr 6.2 21:59:51 25° NNE 21:59:51 25° NNE 22:02:12 10° NNE visible
22 Apr 6.7 23:42:54 12° NW 23:42:54 12° NW 23:45:06 10° NNW visible
23 Apr 6.1 22:02:32 27° N 22:02:32 27° N 22:05:13 10° NNE visible
24 Apr 6.1 22:05:10 28° N 22:05:10 28° N 22:08:09 10° N visible
25 Apr 6.6 20:24:42 14° NE 20:24:42 14° NE 20:25:29 10° NE visible
25 Apr 6.1 22:07:44 27° NNW 22:07:44 27° NNW 22:11:01 10° N visible
26 Apr 6.3 20:27:14 18° NE 20:27:14 18° NE 20:28:50 10° NE visible
26 Apr 6.2 22:10:16 24° NW 22:10:16 24° NW 22:13:47 10° N visible
27 Apr 6.0 20:29:41 25° NE 20:29:41 25° NE 20:32:04 10° NNE visible
27 Apr 6.4 22:12:42 20° NW 22:12:42 20° NW 22:16:26 10° N visible
28 Apr 5.6 20:32:04 33° NNE 20:32:04 33° NNE 20:35:12 10° NNE visible
28 Apr 6.6 22:15:05 16° NW 22:15:24 16° NW 22:18:53 10° NNW visible
29 Apr 5.3 20:34:21 42° N 20:34:21 42° N 20:38:16 10° NNE visible
29 Apr 6.8 22:17:22 11° WNW 22:18:46 12° NW 22:20:54 10° NNW visible
30 Apr 6.3 18:53:30 13° ENE 18:53:30 13° ENE 18:54:30 10° ENE visible
30 Apr 5.1 20:36:30 48° NNW 20:36:30 48° NNW 20:41:16 10° NNE visible
